Location: Unspecified
(35.6961°N, 0.0000°E)
Time: 08:48:08
(UTC+00:00)

Transit 2A Rocket - All Passes

Search period start: 23 May 2019 00:00
Search period end: 02 June 2019 00:00
Orbit: 585 x 918 km, 66.7° (Epoch: 23 May)

Date Brightness Start Highest point End Pass type
(mag) Time Alt. Az. Time Alt. Az. Time Alt. Az.
23 May - 01:50:16 10° N 01:55:03 29° NE 01:59:26 10° ESE visible
23 May - 03:32:53 10° NW 03:37:37 32° WSW 03:41:57 10° S visible
23 May - 16:20:09 10° S 16:25:44 42° ESE 16:31:27 10° NE daylight
23 May - 18:03:10 10° WSW 18:08:29 31° NW 18:13:51 10° N daylight
24 May - 01:08:28 10° N 01:12:10 18° NE 01:15:39 10° E visible
24 May - 02:49:58 10° NW 02:55:19 61° WSW 03:00:08 10° SSE visible
24 May - 15:38:46 10° SSE 15:43:28 24° ESE 15:48:15 10° NE daylight
24 May - 17:19:54 10° SW 17:25:44 50° WNW 17:31:42 10° NNE daylight
25 May - 00:27:39 10° NNE 00:29:07 11° NE 00:30:34 10° ENE visible
25 May - 02:07:23 10° NNW 02:12:51 74° ENE 02:17:45 10° SSE visible
25 May - 03:53:19 10° W 03:54:31 11° W 03:55:41 10° WSW visible
25 May - 14:58:32 10° SE 15:01:18 13° ESE 15:04:06 10° ENE daylight
25 May - 16:37:07 10° SSW 16:43:09 82° WNW 16:49:19 10° NNE daylight
25 May - 18:23:23 10° WNW 18:26:42 15° NW 18:30:02 10° NNW daylight
26 May - 01:25:04 10° NNW 01:30:14 41° ENE 01:34:55 10° SE visible
26 May - 03:08:31 10° WNW 03:12:25 21° WSW 03:16:04 10° SSW visible
26 May - 15:54:47 10° S 16:00:40 60° ESE 16:06:43 10° NE daylight
26 May - 17:39:00 10° WSW 17:43:44 23° NW 17:48:30 10° N daylight
27 May - 00:43:02 10° N 00:47:27 24° NE 00:51:33 10° ESE visible
27 May - 02:25:15 10° NW 02:30:13 40° WSW 02:34:43 10° S visible
27 May - 15:12:58 10° S 15:18:20 35° ESE 15:23:48 10° NE daylight
27 May - 16:55:22 10° WSW 17:00:56 36° NW 17:06:31 10° N daylight
28 May - 00:01:25 10° N 00:04:30 15° NE 00:07:27 10° E visible
28 May - 01:42:28 10° NNW 01:47:51 75° WSW 01:52:41 10° SSE visible
28 May - 14:31:52 10° SSE 14:36:06 20° ESE 14:40:24 10° ENE daylight
28 May - 16:12:17 10° SW 16:18:14 59° WNW 16:24:18 10° NNE daylight
28 May - 18:00:42 10° NW 18:02:08 11° NW 18:03:34 10° NNW daylight
29 May - 00:59:58 10° NNW 01:05:21 60° ENE 01:10:10 10° SE visible
29 May - 02:44:40 10° WNW 02:47:10 14° WSW 02:49:35 10° SW visible
29 May - 13:52:45 10° ESE 13:53:58 11° E 13:55:11 10° E daylight
29 May - 15:29:39 10° SSW 15:35:41 84° ESE 15:41:51 10° NNE daylight
29 May - 17:15:10 10° W 17:19:04 17° NW 17:22:58 10° N daylight
30 May - 00:17:45 10° N 00:22:40 34° NE 00:27:09 10° ESE visible
30 May - 02:00:44 10° NW 02:05:02 26° WSW 02:09:01 10° SSW visible
30 May - 14:47:29 10° S 14:53:16 50° ESE 14:59:09 10° NE daylight
30 May - 16:31:05 10° WSW 16:36:10 27° NW 16:41:15 10° N daylight
30 May - 23:35:49 10° N 23:39:49 20° NE 23:43:34 10° E visible
31 May - 01:17:40 10° NW 01:22:47 49° WSW 01:27:24 10° S visible
31 May - 14:05:52 10° SSE 14:10:57 29° ESE 14:16:07 10° NE daylight
31 May - 15:47:38 10° SW 15:53:23 43° WNW 15:59:11 10° NNE daylight
31 May - 22:54:33 10° NNE 22:56:50 13° NE 22:59:03 10° ENE visible
01 Jun - 00:35:00 10° NNW 00:40:23 88° ENE 00:45:12 10° SSE visible
01 Jun - 13:25:08 10° SE 13:28:45 17° ESE 13:32:24 10° ENE daylight
01 Jun - 15:04:42 10° SW 15:10:45 70° WNW 15:16:52 10° NNE daylight
01 Jun - 16:51:52 10° WNW 16:54:27 13° NW 16:57:03 10° NNW daylight
